Location: Prague
(50.0830°N, 14.4670°E)
Time: 06:01:19
(UTC+02:00)

Tiangong - Pass Details

Date: 02 October 2021
Orbit: 382 x 385 km, 41.5° (Epoch: 15 October)

Event Time Altitude Azimuth Distance (km) Brightness Sun altitude
Exits shadow 04:53:25 14° 148° (SSE) 1,190 3.6 -21.4°
Drops below altitude 10° 04:54:23 10° 131° (SE) 1,398 4.2 -21.2°
Sets 04:56:59 0° 109° (ESE) 2,251 5.7 -20.8°
